FW0979 Weather Reports


Display with metric or nautical units.
time (UTC)temp
F
wind
direction
speed
MPH
gust
MPH
rain 1hr
in
rain 24hr
in
rain mn
in
humidity
%
barometer
mb
20260904023009 87 227 3.0 9.0 0.00 0.00 0.00 36 1005.1
20260904021514 87 209 5.0 9.0 0.00 0.00 0.00 36 1004.9
20260904020009 88 165 2.0 5.0 0.00 0.00 0.00 37 1004.9
20260904014507 88 166 4.0 12.0 0.00 0.00 0.00 36 1004.5
20260904013007 89 158 6.0 12.0 0.00 0.00 0.00 33 1004.1
20260904011506 89 135 6.0 11.0 0.00 0.00 0.00 31 1003.8
20260904010009 90 122 5.0 12.0 0.00 0.00 0.00 31 1003.6
20260904004505 90 110 6.0 12.0 0.00 0.00 0.00 31 1003.5
20260904003005 90 92 8.0 16.0 0.00 0.00 0.00 31 1003.6
20260904001504 91 127 8.0 17.0 0.00 0.00 0.00 31 1003.5
20260904000004 90 101 9.0 17.0 0.00 0.00 0.00 32 1003.5
20260903234503 90 114 8.0 17.0 0.00 0.00 0.00 33 1003.5
20260903233007 90 94 9.0 18.0 0.00 0.00 0.00 32 1003.7
20260903231508 90 360 10.0 19.0 0.00 0.00 0.00 33 1003.7
20260903230004 95 89 8.0 14.0 0.00 0.00 0.00 27 1003.6
20260903224501 94 94 9.0 14.0 0.00 0.00 0.00 29 1003.4
20260903223002 96 56 7.0 13.0 0.00 0.00 0.00 25 1003.4
20260903221500 99 207 5.0 13.0 0.00 0.00 0.00 22 1003.2
20260903214558 95 301 9.0 17.0 0.00 0.00 0.00 25 1003.2
20260903213103 96 240 10.0 21.0 0.00 0.00 0.00 26 1003.3
20260903211607 97 202 10.0 21.0 0.00 0.00 0.00 25 1003.4
20260903210057 99 201 6.0 17.0 0.00 0.00 0.00 21 1003.5
20260903204556 99 234 4.0 8.0 0.00 0.00 0.00 21 1003.6
20260903203052 99 119 3.0 8.0 0.00 0.00 0.00 22 1003.7
20260903201551 101 131 3.0 9.0 0.00 0.00 0.00 21 1003.9
20260903200049 102 193 5.0 13.0 0.00 0.00 0.00 20 1004.0
20260903194548 102 134 3.0 10.0 0.00 0.00 0.00 20 1004.0
20260903193046 102 143 5.0 13.0 0.00 0.00 0.00 21 1004.3
20260903191542 102 321 4.0 11.0 0.00 0.00 0.00 21 1004.6
20260903190040 101 268 6.0 14.0 0.00 0.00 0.00 21 1004.9
20260903184548 100 230 4.0 8.0 0.00 0.00 0.00 21 1005.4
20260903183035 101 221 2.0 9.0 0.00 0.00 0.00 21 1005.6
20260903181531 100 230 4.0 9.0 0.00 0.00 0.00 22 1005.9
20260903180026 99 257 4.0 9.0 0.00 0.00 0.00 23 1006.2
20260903174533 99 208 5.0 13.0 0.00 0.00 0.00 24 1006.3
20260903173033 97 221 4.0 9.0 0.00 0.00 0.00 25 1006.4
20260903171518 96 252 7.0 14.0 0.00 0.00 0.00 26 1006.6
20260903170022 96 219 4.0 13.0 0.00 0.00 0.00 26 1006.6
20260903164510 94 262 5.0 10.0 0.00 0.00 0.00 29 1006.7
20260903163010 93 238 4.0 10.0 0.00 0.00 0.00 30 1006.7
20260903161503 92 247 4.0 10.0 0.00 0.00 0.00 32 1006.8
20260903160108 91 193 4.0 10.0 0.00 0.00 0.00 35 1006.9
20260903154556 89 239 5.0 9.0 0.00 0.00 0.00 36 1006.9
20260903153101 88 244 5.0 12.0 0.00 0.00 0.00 37 1007.0
20260903151549 87 198 4.0 9.0 0.00 0.00 0.00 39 1007.1
20260903150046 85 209 4.0 10.0 0.00 0.00 0.00 41 1007.1
20260903144542 84 360 6.0 11.0 0.00 0.00 0.00 43 1007.5
20260903143045 83 198 4.0 10.0 0.00 0.00 0.00 44 1007.2
20260903141536 81 199 5.0 10.0 0.00 0.00 0.00 46 1007.2
20260903140042 80 210 5.0 11.0 0.00 0.00 0.00 47 1007.2
20260903134532 78 221 5.0 9.0 0.00 0.00 0.00 49 1007.2
20260903133031 77 222 4.0 10.0 0.00 0.00 0.00 50 1007.2
20260903131530 76 219 3.0 9.0 0.00 0.00 0.00 51 1007.2
20260903130029 75 204 5.0 9.0 0.00 0.00 0.00 51 1007.0
20260903124530 76 200 4.0 9.0 0.00 0.00 0.00 50 1006.8
20260903123029 76 192 4.0 8.0 0.00 0.00 0.00 49 1006.8
20260903121523 77 224 4.0 8.0 0.00 0.00 0.00 48 1006.8
20260903120020 77 210 5.0 11.0 0.00 0.00 0.00 48 1006.6
20260903114519 78 210 6.0 13.0 0.00 0.00 0.00 48 1006.4
20260903113018 78 219 6.0 12.0 0.00 0.00 0.00 47 1006.4
20260903111516 78 164 6.0 13.0 0.00 0.00 0.00 47 1006.5
20260903110015 78 164 7.0 14.0 0.00 0.00 0.00 47 1006.4
20260903104514 77 195 6.0 13.0 0.00 0.00 0.00 46 1006.6
20260903103012 77 206 6.0 11.0 0.00 0.00 0.00 46 1006.6
20260903101510 77 203 5.0 10.0 0.00 0.00 0.00 45 1006.6
20260903100009 77 180 4.0 9.0 0.00 0.00 0.00 45 1006.8
20260903094514 78 201 5.0 10.0 0.00 0.00 0.00 43 1006.8
20260903093006 78 360 4.0 7.0 0.00 0.00 0.00 42 1006.8
20260903091502 78 217 3.0 7.0 0.00 0.00 0.00 41 1006.9
20260903090106 79 200 4.0 9.0 0.00 0.00 0.00 41 1006.7
20260903084557 79 204 3.0 8.0 0.00 0.00 0.00 40 1006.9
20260903083101 79 210 4.0 9.0 0.00 0.00 0.00 40 1006.8
20260903081655 79 206 4.0 7.0 0.00 0.00 0.00 40 1006.8
20260903080052 79 201 3.0 6.0 0.00 0.00 0.00 39 1006.9
20260903074555 80 199 2.0 6.0 0.00 0.00 0.00 38 1007.0
20260903073101 80 199 3.0 5.0 0.00 0.00 0.00 38 1007.1
20260903071558 81 202 3.0 7.0 0.00 0.00 0.00 37 1007.1
20260903070141 81 209 3.0 6.0 0.00 0.00 0.00 37 1007.0
20260903064537 81 203 4.0 10.0 0.00 0.00 0.00 37 1006.9
20260903063043 81 198 5.0 8.0 0.00 0.00 0.00 37 1006.9
20260903061536 81 199 5.0 10.0 0.00 0.00 0.00 37 1007.0
20260903060103 82 203 4.0 7.0 0.00 0.00 0.00 37 1007.0
20260903054532 82 179 4.0 7.0 0.00 0.00 0.00 37 1007.0
20260903053026 82 179 4.0 7.0 0.00 0.00 0.00 36 1006.9
20260903051526 82 172 3.0 6.0 0.00 0.00 0.00 38 1006.9
20260903050025 82 140 2.0 5.0 0.00 0.00 0.00 38 1006.9
20260903044524 83 136 2.0 5.0 0.00 0.00 0.00 38 1006.9
20260903043026 83 136 3.0 5.0 0.00 0.00 0.00 37 1006.9
20260903041525 84 135 3.0 8.0 0.00 0.00 0.00 37 1007.1
20260903040034 84 137 4.0 8.0 0.00 0.00 0.00 37 1007.1
20260903034523 84 143 4.0 9.0 0.00 0.00 0.00 37 1007.0
20260903033022 85 140 5.0 12.0 0.00 0.00 0.00 36 1006.8
20260903031530 85 107 6.0 11.0 0.00 0.00 0.00 36 1006.6
20260903030022 86 129 5.0 10.0 0.00 0.00 0.00 36 1006.4
20260903024521 86 129 5.0 10.0 0.00 0.00 0.00 36 1006.2